FW7016 Weather Reports


Display with metric or nautical units.
time (UTC)temp
F
wind
direction
speed
MPH
gust
MPH
rain 1hr
in
rain 24hr
in
rain mn
in
humidity
%
barometer
mb
20260508190011 60 35 9.0 13.0 0.00 0.00 0.00 48 1016.8
20260508185508 59 38 9.0 18.0 0.00 0.00 0.00 47 1017.0
20260508185006 60 344 8.0 14.0 0.00 0.00 0.00 46 1017.0
20260508184504 60 284 7.0 10.0 0.00 0.00 0.00 47 1017.0
20260508184000 59 339 10.0 14.0 0.00 0.00 0.00 50 1017.1
20260508183456 59 337 10.0 15.0 0.00 0.00 0.00 49 1016.9
20260508182951 59 19 14.0 18.0 0.00 0.00 0.00 49 1017.0
20260508182449 58 39 2.0 11.0 0.00 0.00 0.00 52 1017.3
20260508181944 58 16 10.0 13.0 0.00 0.00 0.00 54 1017.4
20260508181441 59 307 6.0 11.0 0.00 0.00 0.00 50 1017.3
20260508180939 58 247 7.0 13.0 0.00 0.00 0.00 52 1017.4
20260508180435 57 324 10.0 13.0 0.00 0.00 0.00 55 1017.4
20260508175931 57 5 10.0 14.0 0.00 0.00 0.00 54 1017.6
20260508175428 57 15 11.0 14.0 0.00 0.00 0.00 54 1017.6
20260508174926 57 0 12.0 14.0 0.00 0.00 0.00 53 1017.6
20260508174423 57 320 13.0 16.0 0.00 0.00 0.00 53 1017.6
20260508173919 57 24 13.0 15.0 0.00 0.00 0.00 55 1017.7
20260508173417 56 2 10.0 14.0 0.00 0.00 0.00 56 1017.6
20260508172912 56 357 7.0 13.0 0.00 0.00 0.00 58 1017.9
20260508172410 57 271 6.0 11.0 0.00 0.00 0.00 58 1017.5
20260508171906 57 19 11.0 18.0 0.00 0.00 0.00 56 1018.0
20260508171402 57 18 13.0 14.0 0.00 0.00 0.00 56 1018.1
20260508170859 55 17 9.0 15.0 0.00 0.00 0.00 57 1018.1
20260508170357 55 350 6.0 13.0 0.00 0.00 0.00 60 1018.1
20260508165853 55 353 7.0 13.0 0.00 0.00 0.00 60 1018.1
20260508165351 54 304 11.0 13.0 0.00 0.00 0.00 59 1018.2
20260508164846 55 19 9.0 13.0 0.00 0.00 0.00 61 1018.0
20260508164344 55 2 9.0 13.0 0.00 0.00 0.00 59 1018.2
20260508163841 54 342 10.0 14.0 0.00 0.00 0.00 61 1018.0
20260508163339 53 2 8.0 10.0 0.00 0.00 0.00 62 1018.0
20260508162835 53 333 13.0 16.0 0.00 0.00 0.00 63 1018.0
20260508162332 54 303 10.0 14.0 0.00 0.00 0.00 63 1018.0
20260508161829 55 16 7.0 13.0 0.00 0.00 0.00 62 1018.0
20260508161326 54 8 8.0 13.0 0.00 0.00 0.00 65 1018.0
20260508160823 54 347 7.0 11.0 0.00 0.00 0.00 64 1017.9
20260508160322 54 17 12.0 14.0 0.00 0.00 0.00 65 1018.1
20260508155818 53 358 13.0 15.0 0.00 0.00 0.00 64 1018.0
20260508155315 52 333 6.0 15.0 0.00 0.00 0.00 66 1018.1
20260508154812 52 4 12.0 16.0 0.00 0.00 0.00 67 1018.1
20260508154310 52 0 7.0 11.0 0.00 0.00 0.00 69 1018.0
20260508153806 52 346 11.0 16.0 0.00 0.00 0.00 67 1018.0
20260508153304 53 304 9.0 14.0 0.00 0.00 0.00 67 1017.9
20260508152759 53 96 11.0 18.0 0.00 0.00 0.00 68 1017.9
20260508152256 52 306 11.0 13.0 0.00 0.00 0.00 69 1017.6
20260508151752 51 320 11.0 14.0 0.00 0.00 0.00 70 1017.9
20260508151249 51 3 12.0 14.0 0.00 0.00 0.00 72 1018.0
20260508150745 51 14 11.0 14.0 0.00 0.00 0.00 70 1017.7
20260508150242 52 342 13.0 15.0 0.00 0.00 0.00 71 1017.9
20260508145738 51 341 10.0 22.0 0.00 0.00 0.00 72 1017.7
20260508145235 51 342 13.0 21.0 0.00 0.00 0.00 72 1017.7
20260508144731 51 308 9.0 15.0 0.00 0.00 0.00 73 1017.9
20260508144230 51 299 15.0 17.0 0.00 0.00 0.00 72 1017.7
20260508143727 51 4 13.0 16.0 0.00 0.00 0.00 74 1017.9
20260508143223 50 355 12.0 17.0 0.00 0.00 0.00 75 1017.9
20260508142714 50 298 16.0 18.0 0.00 0.00 0.00 74 1017.7
20260508142211 50 328 15.0 20.0 0.00 0.00 0.00 76 1017.9
20260508141708 50 286 12.0 16.0 0.00 0.00 0.00 76 1017.7
20260508141205 50 321 15.0 17.0 0.00 0.00 0.00 76 1018.0
20260508140703 49 206 11.0 16.0 0.00 0.00 0.00 78 1017.7
20260508140159 49 322 14.0 20.0 0.00 0.00 0.00 77 1017.7
20260508135656 49 334 14.0 21.0 0.00 0.00 0.00 78 1017.7
20260508135151 48 320 14.0 16.0 0.00 0.00 0.00 79 1017.6
20260508134647 48 328 11.0 20.0 0.00 0.00 0.00 79 1017.6
20260508134145 48 313 13.0 15.0 0.00 0.00 0.00 80 1017.6
20260508133642 48 305 13.0 18.0 0.00 0.00 0.00 80 1017.4
20260508133139 48 327 10.0 14.0 0.00 0.00 0.00 82 1017.5
20260508132637 47 320 12.0 14.0 0.00 0.00 0.00 81 1017.4
20260508132133 47 313 13.0 17.0 0.00 0.00 0.00 81 1017.5
20260508131629 46 312 12.0 16.0 0.00 0.00 0.00 82 1017.3
20260508131126 46 345 9.0 14.0 0.00 0.00 0.00 82 1017.1
20260508130622 46 311 11.0 14.0 0.00 0.00 0.00 83 1017.3
20260508130119 45 324 10.0 14.0 0.00 0.00 0.00 83 1017.4
20260508125620 45 300 10.0 15.0 0.00 0.00 0.00 83 1017.0
20260508125118 44 321 12.0 14.0 0.00 0.00 0.00 84 1017.0
20260508124615 44 253 11.0 14.0 0.00 0.00 0.00 85 1017.0
20260508124112 44 298 12.0 15.0 0.00 0.00 0.00 85 1016.8
20260508123610 44 304 10.0 14.0 0.00 0.00 0.00 84 1016.4
20260508123107 44 306 9.0 14.0 0.00 0.00 0.00 85 1016.7
20260508122603 44 313 9.0 11.0 0.00 0.00 0.00 85 1016.4
20260508122101 44 289 9.0 10.0 0.00 0.00 0.00 86 1016.3
20260508121559 44 314 8.0 11.0 0.00 0.00 0.00 85 1016.1
20260508121057 44 322 6.0 11.0 0.00 0.00 0.00 86 1016.3
20260508120554 44 304 10.0 13.0 0.00 0.00 0.00 86 1016.4
20260508120052 44 276 10.0 15.0 0.00 0.00 0.00 86 1016.1
20260508115549 44 340 12.0 14.0 0.00 0.00 0.00 86 1016.1
20260508115046 44 303 8.0 15.0 0.00 0.00 0.00 85 1016.0
20260508114543 44 284 11.0 17.0 0.00 0.00 0.00 85 1016.0
20260508114039 44 216 9.0 16.0 0.00 0.00 0.00 86 1016.1
20260508113537 43 306 15.0 16.0 0.00 0.00 0.00 86 1015.8
20260508113035 43 270 11.0 16.0 0.00 0.00 0.00 86 1015.7
20260508112531 43 277 9.0 16.0 0.00 0.00 0.00 86 1016.1
20260508112027 43 236 9.0 15.0 0.00 0.00 0.00 87 1016.2
20260508111525 43 288 13.0 17.0 0.00 0.00 0.00 87 1016.2
20260508111021 43 276 9.0 11.0 0.00 0.00 0.00 88 1016.1
20260508110520 43 245 5.0 8.0 0.00 0.00 0.00 88 1015.8
20260508110015 43 251 5.0 7.0 0.00 0.00 0.00 89 1016.0
20260508105510 43 270 5.0 6.0 0.00 0.00 0.00 89 1016.0
20260508105008 43 243 4.0 6.0 0.00 0.00 0.00 90 1016.1
20260508104505 43 278 7.0 9.0 0.00 0.00 0.00 90 1016.2
20260508104001 43 290 8.0 11.0 0.00 0.00 0.00 90 1016.3
20260508103458 43 277 7.0 9.0 0.00 0.00 0.00 91 1016.1
20260508102955 43 245 7.0 9.0 0.00 0.00 0.00 91 1016.3
20260508102454 43 310 7.0 9.0 0.00 0.00 0.00 92 1016.6
20260508101950 43 234 6.0 8.0 0.00 0.00 0.00 92 1016.2
20260508101448 44 283 7.0 9.0 0.00 0.00 0.00 91 1015.8
20260508100945 44 308 5.0 7.0 0.00 0.00 0.00 92 1015.8
20260508100444 44 304 6.0 8.0 0.00 0.00 0.00 91 1015.8
20260508095939 44 196 3.0 6.0 0.00 0.00 0.00 91 1015.8
20260508095437 44 289 5.0 7.0 0.00 0.00 0.00 91 1016.1
20260508094934 45 310 6.0 8.0 0.00 0.00 0.00 91 1016.1
20260508094431 44 330 9.0 11.0 0.00 0.00 0.00 91 1016.3
20260508093927 45 287 10.0 13.0 0.00 0.00 0.00 91 1016.2
20260508093425 44 296 9.0 13.0 0.00 0.00 0.00 91 1016.7
20260508092923 45 319 10.0 14.0 0.00 0.00 0.00 90 1016.4
20260508092421 45 296 11.0 13.0 0.00 0.00 0.00 90 1016.6
20260508091919 45 310 13.0 15.0 0.00 0.00 0.00 90 1016.6
20260508091415 45 308 11.0 15.0 0.00 0.00 0.00 90 1016.4
20260508090912 45 306 14.0 17.0 0.00 0.00 0.00 91 1016.6
20260508090411 45 324 15.0 16.0 0.00 0.00 0.00 91 1016.1
20260508085912 45 319 13.0 17.0 0.00 0.00 0.00 91 1016.4
20260508085409 45 301 10.0 15.0 0.00 0.00 0.00 91 1016.3
20260508084905 44 287 11.0 16.0 0.00 0.00 0.00 91 1016.3
20260508084402 44 276 13.0 14.0 0.00 0.00 0.00 90 1016.1
20260508083900 44 264 11.0 13.0 0.00 0.00 0.00 90 1016.2
20260508083357 44 265 9.0 11.0 0.00 0.00 0.00 90 1016.6
20260508082856 44 287 11.0 13.0 0.00 0.00 0.00 90 1016.3
20260508082354 44 299 8.0 10.0 0.00 0.00 0.00 90 1016.3
20260508081852 44 281 8.0 10.0 0.00 0.00 0.00 90 1016.2
20260508081348 44 305 6.0 10.0 0.00 0.00 0.00 90 1016.2
20260508080846 44 242 7.0 9.0 0.00 0.00 0.00 90 1016.1
20260508080343 44 279 5.0 8.0 0.00 0.00 0.00 90 1016.2
20260508075840 44 298 5.0 7.0 0.00 0.00 0.00 90 1016.4
20260508075337 44 281 7.0 9.0 0.00 0.00 0.00 90 1016.0
20260508074835 44 283 6.0 7.0 0.00 0.00 0.00 90 1016.3
20260508074331 44 273 5.0 8.0 0.00 0.00 0.00 90 1016.3
20260508073828 44 261 5.0 7.0 0.00 0.00 0.00 91 1016.2
20260508073326 43 228 3.0 6.0 0.00 0.00 0.00 91 1016.2
20260508072822 43 284 4.0 6.0 0.00 0.00 0.00 92 1016.2
20260508072319 43 281 6.0 6.0 0.00 0.00 0.00 92 1016.3
20260508071816 43 291 6.0 7.0 0.00 0.00 0.00 92 1015.8
20260508071315 44 231 3.0 6.0 0.00 0.00 0.00 92 1016.3
20260508070812 44 273 5.0 7.0 0.00 0.00 0.00 92 1016.2
20260508070310 44 268 6.0 9.0 0.00 0.00 0.00 92 1016.8
20260508065807 43 288 7.0 8.0 0.00 0.00 0.00 92 1016.7
20260508065307 43 241 2.0 7.0 0.00 0.00 0.00 92 1016.6
20260508064803 43 257 4.0 7.0 0.00 0.00 0.00 92 1016.8
20260508064300 44 233 5.0 6.0 0.00 0.00 0.00 92 1016.4
20260508063758 44 251 4.0 6.0 0.00 0.00 0.00 92 1016.7
20260508063256 44 270 6.0 7.0 0.00 0.00 0.00 92 1016.7
20260508062752 44 252 5.0 7.0 0.00 0.00 0.00 92 1016.7
20260508062250 43 229 3.0 6.0 0.00 0.00 0.00 92 1016.6
20260508061747 43 269 4.0 6.0 0.00 0.00 0.00 92 1016.8
20260508061244 43 232 3.0 3.0 0.00 0.00 0.00 92 1016.7
20260508060740 43 276 2.0 5.0 0.00 0.00 0.00 92 1016.7
20260508060239 43 250 0.0 3.0 0.00 0.00 0.00 92 1016.7
20260508055733 43 286 0.0 5.0 0.00 0.06 0.06 92 1016.8
20260508055231 43 247 0.0 3.0 0.00 0.06 0.06 92 1016.4
20260508054727 43 324 4.0 5.0 0.00 0.06 0.06 92 1016.6
20260508054226 43 116 3.0 3.0 0.00 0.06 0.06 92 1016.6
20260508053722 43 31 1.0 2.0 0.00 0.06 0.06 92 1016.7
20260508053219 44 68 0.0 6.0 0.00 0.06 0.06 92 1016.6
20260508052716 44 222 2.0 2.0 0.00 0.06 0.06 91 1016.7
20260508052213 44 195 0.0 0.0 0.00 0.06 0.06 92 1016.7
20260508051710 44 358 5.0 7.0 0.00 0.06 0.06 91 1016.9
20260508051205 44 123 1.0 2.0 0.00 0.06 0.06 91 1016.3
20260508050701 44 97 0.0 7.0 0.00 0.06 0.06 91 1017.3
20260508050159 44 280 7.0 9.0 0.00 0.06 0.06 91 1017.5
20260508045654 45 324 8.0 13.0 0.05 0.06 0.06 90 1017.4
20260508045153 45 350 13.0 20.0 0.12 0.06 0.06 89 1017.7
20260508044650 45 316 19.0 25.0 0.07 0.05 0.05 89 1017.6
20260508044146 45 237 14.0 22.0 0.17 0.04 0.04 89 1017.4
20260508043642 46 331 14.0 23.0 0.17 0.04 0.04 87 1016.8
20260508043140 46 324 22.0 27.0 0.00 0.01 0.01 85 1017.0
20260508042637 46 9 9.0 10.0 0.00 0.01 0.01 85 1016.4
20260508042134 46 268 5.0 6.0 0.00 0.01 0.01 85 1016.4
20260508041630 46 244 0.0 0.0 0.00 0.01 0.01 84 1016.2
20260508041127 46 253 3.0 3.0 0.00 0.01 0.01 84 1016.2
20260508040623 46 276 4.0 5.0 0.00 0.01 0.01 84 1016.1
20260508040121 46 261 5.0 5.0 0.00 0.01 0.01 84 1016.1
20260508035618 45 259 3.0 5.0 0.00 0.01 0.01 85 1016.2
20260508035116 45 257 3.0 5.0 0.00 0.01 0.01 85 1016.1
20260508034612 46 312 5.0 7.0 0.00 0.01 0.01 84 1016.2
20260508034109 46 203 4.0 8.0 0.00 0.01 0.01 83 1016.2
20260508033607 46 322 6.0 9.0 0.00 0.01 0.01 83 1016.3
20260508033105 47 333 7.0 9.0 0.00 0.01 0.01 83 1016.4
20260508032601 46 337 6.0 9.0 0.00 0.01 0.01 84 1016.3
20260508032059 47 294 6.0 8.0 0.00 0.01 0.01 84 1016.2
20260508031556 47 328 7.0 11.0 0.00 0.01 0.01 83 1016.0
20260508031051 47 319 9.0 10.0 0.00 0.01 0.01 82 1015.8
20260508030548 48 304 8.0 10.0 0.00 0.01 0.01 81 1015.7
20260508030046 48 286 7.0 10.0 0.00 0.01 0.01 80 1015.7
20260508025542 48 329 9.0 13.0 0.00 0.01 0.01 79 1015.7
20260508025039 48 306 5.0 6.0 0.00 0.01 0.01 82 1015.3
20260508024535 48 321 4.0 5.0 0.00 0.01 0.01 83 1015.5
20260508024032 48 299 3.0 5.0 0.00 0.01 0.01 84 1015.5
20260508023528 48 225 3.0 6.0 0.00 0.01 0.01 82 1015.0
20260508023026 47 335 4.0 7.0 0.00 0.01 0.01 83 1015.4
20260508022522 47 29 4.0 5.0 0.00 0.01 0.01 83 1015.3
20260508022019 48 49 7.0 7.0 0.00 0.01 0.01 82 1015.4
20260508021515 48 357 6.0 8.0 0.00 0.01 0.01 82 1015.1
20260508021011 48 359 6.0 7.0 0.00 0.01 0.01 82 1014.5
20260508020509 48 33 8.0 10.0 0.07 0.01 0.01 82 1014.5
20260508020006 49 29 7.0 13.0 0.07 0.01 0.01 82 1014.7
20260508015504 50 350 8.0 14.0 0.00 0.00 0.00 79 1015.6
20260508015000 50 312 13.0 15.0 0.00 0.00 0.00 79 1015.4
20260508014456 50 325 7.0 9.0 0.00 0.00 0.00 81 1015.3
20260508013952 50 307 7.0 8.0 0.00 0.00 0.00 80 1014.9
20260508013448 51 299 4.0 8.0 0.00 0.00 0.00 78 1014.4
20260508012947 51 296 4.0 7.0 0.00 0.00 0.00 77 1014.7
20260508012443 51 290 6.0 10.0 0.00 0.00 0.00 76 1014.3
20260508011941 52 239 7.0 9.0 0.00 0.00 0.00 76 1014.3
20260508011438 52 224 1.0 5.0 0.00 0.00 0.00 75 1014.3
20260508010936 51 250 2.0 5.0 0.00 0.00 0.00 76 1014.3
20260508010433 51 228 1.0 7.0 0.00 0.00 0.00 76 1014.1
20260508005930 51 238 4.0 7.0 0.00 0.00 0.00 75 1014.1
20260508005426 52 215 5.0 6.0 0.00 0.00 0.00 75 1014.0
20260508004923 52 222 10.0 10.0 0.00 0.00 0.00 73 1013.8
20260508004414 53 239 8.0 11.0 0.00 0.00 0.00 74 1014.1
20260508003910 54 208 10.0 11.0 0.00 0.00 0.00 73 1013.8
20260508003407 55 180 8.0 9.0 0.00 0.00 0.00 68 1013.6
20260508002904 55 178 7.0 9.0 0.00 0.00 0.00 66 1013.7
20260508002401 56 181 5.0 7.0 0.00 0.00 0.00 65 1013.8
20260508001857 56 179 4.0 7.0 0.00 0.00 0.00 61 1014.1
20260508001353 55 172 0.0 5.0 0.00 0.00 0.00 63 1013.8
20260508000849 55 188 2.0 3.0 0.00 0.00 0.00 66 1014.1
20260508000346 54 188 0.0 0.0 0.00 0.00 0.00 67 1014.1
20260507235843 55 198 0.0 3.0 0.00 0.00 0.00 66 1014.0
20260507235340 55 196 0.0 0.0 0.00 0.00 0.00 64 1013.8
20260507234837 55 182 0.0 0.0 0.00 0.00 0.00 63 1013.8
20260507234333 55 195 1.0 3.0 0.00 0.00 0.00 65 1014.3
20260507233830 55 1 7.0 8.0 0.00 0.00 0.00 63 1013.7
20260507233328 55 11 8.0 16.0 0.00 0.00 0.00 63 1013.7
20260507232826 55 55 6.0 13.0 0.00 0.00 0.00 63 1013.5
20260507232322 55 34 4.0 11.0 0.00 0.00 0.00 64 1013.8
20260507231819 55 55 7.0 10.0 0.00 0.00 0.00 67 1014.0
20260507231316 55 24 7.0 14.0 0.00 0.00 0.00 66 1013.7
20260507230812 56 37 17.0 22.0 0.00 0.00 0.00 68 1013.7
20260507230310 55 37 17.0 25.0 0.00 0.00 0.00 68 1014.0
20260507225809 55 13 19.0 26.0 0.00 0.00 0.00 69 1014.0
20260507225306 55 40 15.0 23.0 0.00 0.00 0.00 69 1013.7
20260507224802 57 28 19.0 29.0 0.00 0.00 0.00 64 1013.6
20260507224259 58 59 4.0 8.0 0.00 0.00 0.00 56 1013.5
20260507223755 58 224 0.0 7.0 0.00 0.00 0.00 57 1013.4
20260507223251 58 207 0.0 2.0 0.00 0.00 0.00 57 1013.1
20260507222748 59 225 0.0 3.0 0.00 0.00 0.00 59 1013.4
20260507222239 58 262 6.0 9.0 0.00 0.00 0.00 61 1013.2
20260507221737 56 213 5.0 10.0 0.00 0.00 0.00 59 1013.6
20260507221232 55 225 12.0 15.0 0.00 0.00 0.00 68 1013.8
20260507220729 56 253 5.0 6.0 0.00 0.00 0.00 60 1013.8
20260507220227 56 126 3.0 5.0 0.00 0.00 0.00 61 1013.5
20260507215723 57 47 3.0 9.0 0.00 0.00 0.00 62 1013.2
20260507215221 57 66 1.0 3.0 0.00 0.00 0.00 60 1013.2
20260507214718 58 43 5.0 7.0 0.00 0.00 0.00 59 1013.2
20260507214215 58 180 0.0 5.0 0.00 0.00 0.00 59 1013.5
20260507213710 58 145 5.0 6.0 0.00 0.00 0.00 61 1013.1
20260507213208 57 163 1.0 3.0 0.00 0.00 0.00 58 1013.1
20260507212704 56 174 0.0 0.0 0.00 0.00 0.00 58 1013.6
20260507212200 57 131 2.0 3.0 0.00 0.00 0.00 61 1013.6
20260507211657 56 180 2.0 3.0 0.00 0.00 0.00 58 1013.5
20260507211153 56 171 3.0 3.0 0.00 0.00 0.00 59 1013.6
20260507210650 54 178 1.0 2.0 0.00 0.00 0.00 63 1013.7
20260507210147 54 218 5.0 7.0 0.00 0.00 0.00 70 1013.7
20260507205643 53 190 0.0 6.0 0.00 0.00 0.00 65 1013.7
20260507205140 54 217 3.0 3.0 0.00 0.00 0.00 68 1014.3
20260507204636 54 179 3.0 6.0 0.00 0.00 0.00 65 1014.2
20260507204134 55 215 3.0 5.0 0.00 0.00 0.00 58 1014.3
20260507203631 53 175 4.0 6.0 0.00 0.00 0.00 64 1014.2
20260507203129 52 190 4.0 7.0 0.00 0.00 0.00 71 1014.3
20260507202625 52 210 7.0 8.0 0.00 0.00 0.00 69 1014.3
20260507202121 52 202 4.0 6.0 0.00 0.00 0.00 73 1014.8
20260507201616 52 195 5.0 5.0 0.00 0.00 0.00 70 1014.9
20260507201114 52 234 4.0 6.0 0.00 0.00 0.00 65 1014.9
20260507200609 52 210 7.0 8.0 0.00 0.00 0.00 70 1015.0
20260507200105 52 232 5.0 6.0 0.00 0.00 0.00 73 1015.1
20260507195603 53 220 7.0 9.0 0.00 0.00 0.00 69 1015.3
20260507195100 53 227 3.0 6.0 0.00 0.00 0.00 67 1015.3
20260507194556 52 221 7.0 8.0 0.00 0.00 0.00 67 1015.4
20260507194052 53 227 9.0 10.0 0.00 0.00 0.00 68 1015.3
20260507193549 53 224 8.0 11.0 0.00 0.00 0.00 66 1015.3
20260507193046 53 228 11.0 14.0 0.00 0.00 0.00 64 1015.3
20260507192542 53 240 12.0 16.0 0.00 0.00 0.00 64 1015.4
20260507192039 53 240 17.0 20.0 0.00 0.00 0.00 64 1015.6
20260507191535 53 252 10.0 13.0 0.00 0.00 0.00 63 1016.0
20260507191032 53 239 4.0 8.0 0.00 0.00 0.00 62 1015.8
20260507190529 54 271 6.0 9.0 0.00 0.00 0.00 61 1016.0